Wind_Speed
2 10 12 13 13 14 15 15 14 12 9 7 5 3 5 5 10 14 20 23 25 26 23 21 19 17 14 15 15 15 15 20 19 19 20 20 20 21 21 20 21 21 21
21 16 12 12 13 15 17 16 15 13 11 8 5 3 4 6 14 18 22 25 25 25 23 21 20 18 16 15 15 15 15 17 18 18 18 18 18 18 18 18 19 19 18
19 21 16 15 14 17 18 17 16 14 12 8 5 4 4 9 16 19 23 26 26 26 23 21 19 18 17 15 14 15 15 15 16 16 16 15 16 16 15 16 16 17 16
5 11 17 21 17 19 20 19 18 15 13 9 6 4 6 12 18 20 22 25 26 25 23 21 19 18 17 15 15 14 14 12 13 13 13 14 14 14 13 13 14 14 14
19 11 12 19 20 21 22 21 20 17 14 11 7 5 9 14 17 23 25 26 28 26 23 21 19 17 17 16 15 14 14 12 13 13 12 12 11 11 11 10 11 11 11
26 20 12 18 21 22 23 22 21 19 15 11 9 7 12 17 20 23 27 27 27 25 23 21 18 17 17 17 16 15 14 12 11 11 11 11 9 9 9 8 8 9 10
27 25 15 18 21 23 24 24 22 21 17 13 10 8 14 21 24 24 26 26 26 24 22 20 18 17 17 17 17 15 13 12 11 11 9 9 8 7 7 6 6 8 9
19 22 18 19 22 24 25 26 24 22 19 15 11 12 16 19 24 24 24 25 25 23 22 20 18 17 16 17 17 15 14 11 10 11 10 8 7 6 5 5 6 6 8
22 18 18 20 24 26 26 27 26 24 21 18 15 17 19 20 23 22 22 23 24 23 21 20 19 18 16 16 17 16 14 12 10 11 10 8 7 6 4 5 4 6 8
28 19 18 22 26 29 29 29 28 26 24 21 20 21 24 23 21 19 20 22 24 23 22 21 19 18 17 17 17 16 14 12 11 12 11 9 7 6 5 4 5 6 7
36 27 22 25 29 31 32 32 31 29 27 25 24 23 25 27 24 21 21 23 25 24 22 19 18 18 17 17 17 16 15 13 13 12 10 9 7 6 5 5 6 6 7
32 31 25 28 32 35 34 33 34 33 31 29 27 28 26 24 23 22 23 24 25 24 23 20 18 17 17 17 18 18 17 14 12 11 10 8 8 7 6 6 6 6 7
39 31 28 30 36 36 37 35 37 36 34 33 30 30 28 25 25 23 25 26 27 26 24 22 20 19 19 20 21 19 18 14 12 11 11 9 8 7 6 5 6 5 7
38 39 35 36 39 40 40 37 38 37 36 36 33 32 32 28 26 24 24 24 25 26 25 23 22 21 20 19 19 18 16 14 11 10 9 9 7 7 6 5 5 5 6
39 42 40 42 43 44 44 41 40 40 39 37 35 35 32 27 26 24 23 24 25 26 27 26 24 22 21 20 21 18 16 14 11 10 9 7 7 6 6 5 5 5 6
43 44 46 46 48 51 47 45 43 44 42 39 36 33 29 27 26 23 22 23 26 26 27 27 25 23 23 21 20 18 17 15 13 11 10 8 7 7 6 5 4 4 5
51 47 51 49 49 54 56 49 48 47 46 42 38 29 30 29 27 25 23 23 25 27 28 28 27 26 24 23 21 20 18 16 14 13 11 9 7 7 6 5 4 4 5
54 53 51 54 53 49 44 55 53 51 50 46 42 39 34 30 28 27 26 24 24 26 29 29 28 26 25 24 21 20 19 16 15 12 11 10 8 7 6 5 4 3 3
54 59 57 56 57 57 60 48 57 52 51 49 43 39 37 33 29 28 28 25 25 26 28 29 30 28 26 24 23 21 20 18 15 14 12 10 9 8 6 6 4 3 1
53 57 57 65 63 63 65 32 55 54 52 50 46 41 38 35 31 30 30 28 26 27 28 30 30 30 28 26 24 23 21 19 17 15 14 12 10 8 7 7 4 2 0
50 54 60 64 56 56 60 58 58 59 56 52 48 43 39 36 34 33 32 30 28 28 28 30 31 31 31 28 26 23 21 20 19 16 15 13 11 10 9 8 4 3 2
52 54 63 58 50 54 46 50 52 59 54 48 47 43 41 39 37 36 33 32 30 30 30 31 31 31 31 28 25 24 24 22 20 18 16 14 13 11 10 8 5 4 3
60 51 53 63 54 48 56 57 46 55 54 52 52 48 46 41 40 38 35 33 33 32 32 32 32 31 30 29 28 26 25 24 20 19 17 16 14 13 12 8 6 5 5
60 55 48 55 51 46 55 49 50 58 56 56 54 51 47 43 41 40 37 36 35 35 35 34 33 31 29 29 27 27 24 22 21 20 18 17 16 15 12 9 8 7 6
51 55 50 37 58 51 42 60 51 61 60 53 54 51 48 47 44 42 41 40 38 38 36 35 36 33 31 31 30 26 26 24 24 21 18 17 17 16 12 10 9 9 8
39 45 52 45 49 53 58 53 49 61 58 59 59 54 52 50 47 44 42 42 39 38 38 38 36 35 32 32 32 30 28 25 23 22 21 19 18 16 14 12 11 10 9
Wind_Direction
239 225 247 240 236 233 223 221 215 211 214 216 230 252 252 219 184 178 160 161 159 152 151 146 144 141 136 123 115 112 107 108 109 106 102 98 96 93 90 89 86 81 75
240 245 257 246 244 233 227 223 215 211 213 215 222 252 240 205 168 173 164 163 162 154 153 150 148 146 138 131 123 116 113 114 113 109 106 103 99 95 92 88 84 78 73
243 242 237 244 238 234 230 222 217 211 215 214 232 238 219 177 163 171 167 167 163 156 155 154 151 149 143 140 130 124 121 123 119 114 112 109 103 98 91 87 81 75 70
248 233 242 239 236 230 224 218 214 212 211 213 226 224 194 176 164 158 152 161 161 158 155 156 152 150 148 145 139 131 128 128 120 118 115 112 108 102 94 85 80 74 68
262 259 242 229 229 226 222 214 212 209 208 213 216 211 178 175 158 163 164 159 160 159 160 157 155 155 151 151 145 139 134 137 136 133 127 120 115 109 99 88 79 73 66
255 248 258 230 225 222 219 214 210 207 207 210 217 206 176 169 166 171 168 165 163 163 161 159 158 157 155 155 151 148 144 149 143 141 138 132 123 111 101 87 76 69 60
248 241 248 223 221 218 216 213 209 206 203 203 206 191 174 171 175 176 171 169 167 167 164 162 160 162 161 159 160 155 152 157 158 149 144 140 129 119 101 88 71 59 52
233 232 229 220 217 215 215 211 206 204 202 200 195 172 165 173 178 174 174 173 170 170 168 168 166 168 168 165 163 162 160 167 165 156 154 144 141 128 108 92 65 49 48
221 219 221 218 216 213 214 210 206 203 202 197 186 173 168 174 170 172 177 178 175 174 173 174 173 171 171 169 165 170 164 175 165 161 154 155 147 130 120 87 73 49 49
225 214 219 220 218 212 210 209 205 202 202 196 187 180 181 184 182 186 184 181 180 179 182 179 176 174 170 170 168 169 167 173 168 159 156 155 143 129 106 95 72 60 53
227 221 230 219 221 215 211 207 203 202 202 201 191 185 190 195 199 194 187 184 185 185 185 180 179 175 172 171 166 171 168 176 168 162 160 154 140 123 106 91 79 67 57
238 230 221 221 219 216 212 208 204 202 202 204 194 192 200 198 196 194 190 188 189 187 183 183 181 178 171 170 166 175 171 177 171 161 159 154 136 123 110 94 83 69 59
215 211 222 224 219 218 213 209 208 203 203 205 199 196 205 200 196 194 194 193 190 190 186 184 184 180 174 174 177 177 179 180 173 156 153 147 135 126 114 101 87 75 66
213 209 203 220 221 217 212 209 209 207 207 207 201 200 205 202 196 198 200 198 196 193 190 186 188 186 179 178 181 186 182 184 170 157 152 145 141 129 118 106 90 75 67
213 206 206 203 218 216 214 209 208 208 209 210 204 204 205 202 200 198 202 200 201 199 193 191 192 190 183 186 185 187 184 185 172 159 149 150 148 141 129 115 97 82 70
211 210 205 203 209 212 214 210 207 208 210 209 207 207 205 203 203 199 201 203 204 202 198 194 194 195 190 189 190 188 187 190 179 168 160 164 156 142 130 126 108 88 75
215 209 204 207 209 207 213 206 209 207 210 209 206 210 209 208 205 204 206 203 205 204 201 197 197 196 194 193 191 194 192 193 186 180 176 173 170 152 152 142 125 98 79
215 210 211 207 209 218 200 206 210 207 209 210 205 197 214 210 208 205 207 206 205 204 201 199 199 200 197 199 195 198 198 195 194 186 189 182 179 173 167 162 144 118 75
219 211 210 209 208 220 213 209 207 209 211 210 207 205 208 210 208 210 208 207 206 205 202 202 200 202 201 202 200 200 201 201 197 196 192 191 185 188 184 180 165 146 58
220 217 218 211 212 213 215 217 204 208 211 211 207 206 208 209 207 212 210 205 205 208 205 202 202 202 204 203 203 203 202 204 202 202 197 194 192 194 195 190 181 219 241
225 225 215 218 222 217 231 235 202 209 210 210 209 208 208 210 209 213 213 206 205 208 206 205 206 204 206 204 202 204 203 205 205 204 202 198 195 198 201 195 204 251 237
227 226 224 224 226 230 222 216 211 212 211 212 213 208 211 210 212 215 213 212 208 210 206 206 208 207 207 206 206 204 206 205 207 206 205 203 200 202 202 208 230 243 232
232 229 229 226 232 219 226 220 200 214 211 212 213 209 210 210 214 215 214 214 211 211 211 209 209 209 208 210 207 208 207 209 207 207 206 205 203 202 203 222 240 235 232
234 230 233 234 229 229 208 209 211 203 208 211 214 212 209 212 215 217 217 217 215 212 213 212 211 213 211 212 213 214 212 213 211 209 207 207 205 202 207 230 239 235 234
238 235 231 238 232 224 236 220 210 224 225 216 214 216 211 211 214 217 216 217 215 215 211 214 212 212 214 214 214 213 214 208 209 204 209 208 205 203 215 230 234 232 229
243 240 231 231 233 227 228 220 218 205 213 218 215 213 213 212 213 216 217 217 216 215 210 213 213 214 214 215 215 213 211 212 210 205 201 202 204 208 219 227 231 231 227
Height
3118 3120 3122 3122 3123 3124 3126 3128 3129 3131 3132 3132 3133 3133 3134 3134 3135 3138 3138 3142 3143 3145 3149 3151 3153 3155 3157 3157 3158 3159 3159 3158 3159 3160 3160 3161 3160 3160 3159 3160 3159 3158 3157
3118 3118 3120 3121 3122 3123 3125 3127 3129 3130 3131 3132 3132 3132 3132 3134 3134 3138 3139 3141 3145 3146 3149 3152 3154 3156 3158 3159 3160 3161 3162 3162 3162 3163 3163 3163 3163 3163 3163 3163 3162 3161 3161
3113 3116 3118 3119 3120 3122 3123 3125 3128 3129 3131 3131 3133 3131 3133 3134 3135 3138 3139 3142 3145 3147 3150 3153 3155 3157 3158 3160 3161 3162 3164 3164 3164 3165 3165 3166 3166 3166 3166 3166 3165 3164 3164
3111 3112 3114 3116 3118 3119 3122 3124 3126 3128 3129 3130 3132 3132 3132 3135 3136 3139 3141 3142 3145 3148 3151 3154 3156 3157 3159 3161 3163 3164 3165 3167 3167 3167 3168 3168 3168 3168 3168 3168 3168 3167 3167
3109 3109 3111 3113 3115 3117 3120 3122 3125 3127 3128 3130 3131 3132 3131 3135 3138 3140 3141 3143 3146 3149 3151 3154 3156 3158 3160 3162 3163 3165 3167 3168 3168 3168 3170 3170 3171 3170 3170 3170 3170 3169 3169
3105 3106 3108 3110 3112 3114 3118 3121 3124 3126 3129 3130 3131 3131 3131 3134 3139 3139 3141 3144 3147 3150 3152 3154 3157 3159 3160 3163 3164 3165 3167 3169 3169 3170 3171 3171 3172 3172 3172 3172 3172 3171 3171
3102 3103 3106 3107 3110 3113 3116 3118 3122 3125 3127 3129 3130 3130 3130 3133 3137 3140 3142 3145 3148 3150 3152 3154 3157 3159 3161 3163 3165 3166 3168 3169 3170 3171 3172 3173 3174 3173 3173 3173 3173 3172 3172
3098 3101 3103 3105 3108 3111 3113 3116 3120 3123 3126 3129 3130 3132 3131 3134 3135 3140 3143 3146 3148 3151 3153 3155 3157 3159 3162 3164 3165 3167 3169 3170 3171 3172 3173 3174 3174 3175 3175 3175 3174 3174 3174
3093 3098 3099 3101 3104 3108 3111 3113 3117 3121 3125 3127 3129 3130 3132 3135 3135 3140 3143 3146 3148 3151 3153 3155 3157 3159 3162 3164 3166 3167 3169 3170 3171 3173 3174 3174 3175 3176 3176 3176 3176 3175 3175
3090 3093 3096 3097 3099 3104 3107 3110 3113 3118 3122 3125 3127 3128 3132 3133 3136 3139 3142 3145 3148 3150 3153 3155 3157 3158 3162 3164 3166 3168 3170 3171 3172 3173 3174 3175 3176 3176 3177 3177 3177 3177 3176
3084 3087 3090 3093 3096 3100 3103 3105 3109 3115 3119 3123 3125 3127 3130 3130 3134 3137 3141 3144 3147 3149 3153 3156 3157 3159 3162 3164 3167 3169 3170 3171 3172 3174 3175 3176 3176 3177 3177 3178 3178 3178 3178
3079 3082 3085 3088 3092 3096 3099 3102 3106 3110 3115 3119 3123 3125 3128 3129 3133 3136 3140 3143 3146 3149 3152 3155 3157 3159 3162 3165 3167 3169 3170 3172 3172 3174 3175 3176 3177 3178 3178 3179 3179 3179 3179
3065 3071 3081 3084 3088 3092 3095 3097 3101 3105 3110 3115 3119 3122 3125 3126 3130 3134 3138 3140 3144 3147 3150 3154 3157 3159 3161 3164 3166 3168 3170 3172 3173 3175 3176 3177 3178 3178 3179 3180 3181 3181 3181
3057 3062 3066 3079 3083 3085 3088 3092 3096 3101 3106 3111 3115 3118 3121 3123 3128 3132 3136 3140 3143 3146 3149 3153 3156 3158 3160 3164 3166 3168 3170 3172 3174 3175 3177 3178 3178 3180 3180 3181 3182 3182 3182
3049 3053 3060 3064 3074 3078 3079 3086 3091 3096 3102 3106 3111 3114 3118 3122 3125 3130 3134 3138 3141 3144 3148 3150 3154 3158 3159 3163 3165 3167 3170 3172 3174 3176 3177 3178 3179 3180 3181 3182 3182 3183 3183
3040 3045 3050 3056 3061 3067 3073 3079 3084 3090 3095 3101 3106 3110 3116 3119 3123 3128 3132 3135 3139 3142 3146 3149 3153 3157 3159 3162 3165 3167 3169 3171 3173 3175 3177 3178 3180 3181 3182 3182 3183 3184 3184
3030 3036 3041 3048 3051 3049 3058 3068 3075 3082 3088 3094 3100 3105 3112 3115 3120 3125 3129 3132 3136 3139 3144 3147 3151 3155 3158 3160 3164 3167 3169 3171 3173 3175 3177 3178 3180 3181 3182 3183 3184 3184 3185
3020 3027 3032 3038 3041 3037 3019 3051 3065 3074 3081 3088 3094 3102 3105 3111 3115 3121 3125 3129 3133 3137 3140 3144 3149 3153 3156 3159 3163 3166 3168 3170 3172 3175 3176 3178 3180 3181 3182 3183 3184 3185 3185
3010 3017 3023 3027 3032 3023 3036 3030 3055 3067 3074 3082 3089 3095 3099 3106 3112 3117 3121 3125 3130 3134 3137 3142 3146 3151 3154 3157 3161 3164 3167 3170 3172 3173 3176 3178 3180 3181 3182 3184 3185 3185 3186
3000 3006 3012 3018 3020 3029 3037 3010 3044 3056 3068 3077 3083 3090 3095 3099 3107 3112 3116 3121 3126 3130 3135 3139 3143 3148 3152 3155 3159 3162 3166 3168 3171 3173 3175 3177 3179 3181 3182 3184 3185 3186 3186
2992 2997 3002 3006 3015 3025 3023 3020 3027 3048 3060 3069 3077 3085 3090 3095 3102 3107 3112 3117 3122 3127 3132 3136 3140 3144 3148 3152 3156 3160 3164 3167 3169 3172 3174 3176 3178 3180 3182 3183 3184 3185 3186
2983 2990 2994 2996 3007 3019 3017 3025 3027 3044 3055 3065 3073 3080 3085 3089 3096 3102 3108 3114 3118 3122 3127 3132 3137 3141 3146 3150 3154 3157 3161 3165 3167 3170 3172 3174 3176 3179 3181 3182 3183 3184 3185
2974 2982 2987 2991 3003 3008 3020 3021 3016 3035 3047 3055 3062 3069 3075 3082 3090 3098 3104 3109 3114 3118 3123 3128 3133 3138 3143 3148 3150 3154 3157 3160 3164 3168 3170 3173 3175 3177 3180 3181 3182 3183 3184
2966 2974 2979 2984 2992 2997 3010 3010 3019 3011 3033 3045 3054 3062 3070 3078 3086 3093 3099 3104 3109 3113 3118 3124 3130 3135 3139 3143 3148 3150 3154 3159 3161 3164 3168 3171 3173 3176 3178 3180 3181 3182 3183
2959 2965 2974 2980 2987 2995 3002 3009 3015 3024 3030 3040 3049 3058 3064 3070 3079 3086 3092 3097 3103 3108 3114 3119 3124 3130 3135 3139 3143 3148 3150 3154 3157 3161 3165 3168 3171 3174 3176 3178 3180 3181 3182
2954 2959 2967 2975 2981 2992 2996 2997 3005 3016 3023 3028 3039 3047 3054 3062 3071 3078 3085 3091 3097 3103 3108 3114 3120 3125 3131 3135 3138 3143 3147 3150 3155 3157 3161 3165 3169 3172 3174 3176 3178 3179 3180